Weather History for Owatonna, MN

Change the Weather History Date:

Sunday, November 4, 2012

  Actual Average Record
Temperature  
Mean Temperature 42 °F -  
Max Temperature 48 °F 46 °F 73 °F (2008)
Min Temperature 37 °F 28 °F -3 °F (1991)
Degree Days  
Heating Degree Days 22    
Moisture  
Dew Point 34 °F    
Average Humidity 72    
Maximum Humidity 87    
Minimum Humidity 62    
Precipitation  
Precipitation 0.04 in - - ()
Sea Level Pressure  
Sea Level Pressure 30.16 in    
Wind  
Wind Speed 3 mph (ESE)    
Max Wind Speed 9 mph    
Max Gust Speed -    
Visibility 8 miles    
Events Rain    
Averages and records for this station are not official NWS values.
T = Trace of Precipitation, MM = Missing Value Source: NWS Daily Summary

Daily Weather History Graph

Daily Weather History Graph

Search for Another Location

Airport:

Trip Planner

Search our weather history database for the weather conditions in past years. The results will help you decide how hot, cold, wet, or windy it might be!

Date:

Astronomy

Nov. 04, 2012 Rise Set
Actual Time 6:54 AM CST 4:58 PM CST
Civil Twilight 6:23 AM CST 5:28 PM CST
Nautical Twilight 5:49 AM CST 6:02 PM CST
Astronomical Twilight 5:15 AM CST 6:36 PM CST
Moon 9:35 PM CST (11/4) 11:40 AM CST (11/4)
Length of Visible Light 11h 04m
Length of Day
10h 03m
Waning Gibbous, 72% of the Moon is Illuminated
Nov 4
Waning Gibbous
Nov 6
Last Quarter
Nov 13
New
Nov 20
First Quarter
Nov 28
Full

Hourly Weather History & Observations

Time (CST) Temp. Windchill Dew Point Humidity Pressure Visibility Wind Dir Wind Speed Gust Speed Precip Events Conditions
12:13 AM 39.2 °F - 33.8 °F 81% 30.21 in 7.0 mi Calm Calm - 0.01 in   Drizzle
12:33 AM 39.2 °F - 33.8 °F 81% 30.21 in 7.0 mi Calm Calm - 0.02 in Rain Light Rain
12:53 AM 39.2 °F - 32.0 °F 75% 30.21 in 7.0 mi Calm Calm - 0.03 in Rain Light Rain
1:13 AM 39.2 °F - 32.0 °F 75% 30.21 in 7.0 mi Calm Calm - N/A   Drizzle
1:33 AM 39.2 °F - 32.0 °F 75% 30.21 in 10.0 mi Calm Calm - 0.01 in   Drizzle
1:53 AM 39.2 °F - 33.8 °F 81% 30.20 in 7.0 mi Calm Calm - 0.01 in Rain Rain
1:13 AM 39.2 °F - 33.8 °F 81% 30.20 in 7.0 mi Calm Calm - N/A   Drizzle
1:33 AM 37.4 °F - 32.0 °F 81% 30.20 in 7.0 mi Calm Calm - N/A   Light Drizzle
1:53 AM 37.4 °F - 32.0 °F 81% 30.20 in 5.0 mi Calm Calm - N/A   Haze
2:14 AM 37.4 °F - 32.0 °F 81% 30.20 in 5.0 mi Calm Calm - N/A   Haze
2:33 AM 37.4 °F - 32.0 °F 81% 30.20 in 7.0 mi Calm Calm - N/A   Mostly Cloudy
2:53 AM 37.4 °F - 32.0 °F 81% 30.20 in 7.0 mi Calm Calm - N/A   Mostly Cloudy
3:13 AM 37.4 °F - 32.0 °F 81% 30.19 in 5.0 mi Calm Calm - N/A   Haze
3:34 AM 37.4 °F - 32.0 °F 81% 30.19 in 5.0 mi Calm Calm - N/A   Haze
3:53 AM 37.4 °F - 33.8 °F 87% 30.19 in 5.0 mi Calm Calm - N/A   Haze
4:13 AM 37.4 °F - 33.8 °F 87% 30.20 in 5.0 mi Calm Calm - N/A   Haze
4:33 AM 37.4 °F - 33.8 °F 87% 30.20 in 7.0 mi Calm Calm - N/A   Overcast
4:53 AM 39.2 °F - 33.8 °F 81% 30.20 in 7.0 mi Calm Calm - N/A   Overcast
5:13 AM 39.2 °F 37.0 °F 33.8 °F 81% 30.20 in 7.0 mi East 3.5 mph - N/A   Overcast
5:33 AM 39.2 °F 35.9 °F 33.8 °F 81% 30.19 in 7.0 mi East 4.6 mph - N/A   Overcast
5:54 AM 39.2 °F 35.9 °F 33.8 °F 81% 30.19 in 7.0 mi ESE 4.6 mph - N/A   Overcast
6:13 AM 39.2 °F 35.9 °F 33.8 °F 81% 30.19 in 7.0 mi ESE 4.6 mph - N/A   Overcast
6:33 AM 39.2 °F 37.0 °F 33.8 °F 81% 30.19 in 7.0 mi SE 3.5 mph - N/A   Overcast
6:53 AM 39.2 °F 35.0 °F 33.8 °F 81% 30.18 in 7.0 mi SE 5.8 mph - N/A   Overcast
7:13 AM 39.2 °F 35.9 °F 33.8 °F 81% 30.18 in 7.0 mi ESE 4.6 mph - N/A   Overcast
7:33 AM 39.2 °F 37.0 °F 33.8 °F 81% 30.19 in 7.0 mi SE 3.5 mph - N/A   Overcast
7:53 AM 39.2 °F 37.0 °F 33.8 °F 81% 30.19 in 7.0 mi SE 3.5 mph - N/A   Overcast
8:13 AM 41.0 °F - 33.8 °F 76% 30.19 in 7.0 mi Calm Calm - N/A   Overcast
8:33 AM 41.0 °F 39.0 °F 33.8 °F 76% 30.18 in 5.0 mi East 3.5 mph - N/A   Haze
8:53 AM 41.0 °F - 33.8 °F 76% 30.18 in 7.0 mi Calm Calm - N/A   Overcast
9:13 AM 42.8 °F - 33.8 °F 70% 30.18 in 7.0 mi Calm Calm - N/A   Overcast
9:33 AM 42.8 °F - 33.8 °F 70% 30.18 in 10.0 mi Calm Calm - N/A   Overcast
9:53 AM 42.8 °F - 33.8 °F 70% 30.18 in 7.0 mi Calm Calm - N/A   Overcast
10:14 AM 42.8 °F - 33.8 °F 70% 30.18 in 10.0 mi Calm Calm - N/A   Overcast
10:33 AM 42.8 °F 41.1 °F 33.8 °F 70% 30.17 in 7.0 mi East 3.5 mph - N/A   Overcast
10:53 AM 42.8 °F - 35.6 °F 76% 30.17 in 7.0 mi Calm Calm - N/A   Overcast
11:13 AM 44.6 °F 42.2 °F 35.6 °F 71% 30.17 in 7.0 mi ESE 4.6 mph - N/A   Overcast
11:33 AM 44.6 °F 42.2 °F 35.6 °F 71% 30.16 in 7.0 mi East 4.6 mph - N/A   Mostly Cloudy
11:54 AM 44.6 °F 42.2 °F 35.6 °F 71% 30.16 in 7.0 mi East 4.6 mph - N/A   Overcast
12:14 PM 44.6 °F 40.7 °F 35.6 °F 71% 30.15 in 7.0 mi East 6.9 mph - N/A   Scattered Clouds
12:33 PM 44.6 °F 40.2 °F 35.6 °F 71% 30.14 in 7.0 mi East 8.1 mph - N/A   Scattered Clouds
12:54 PM 46.4 °F 42.9 °F 35.6 °F 66% 30.14 in 7.0 mi ESE 6.9 mph - N/A   Clear
1:13 PM 46.4 °F 42.4 °F 35.6 °F 66% 30.13 in 7.0 mi East 8.1 mph - N/A   Scattered Clouds
1:33 PM 48.2 °F - 35.6 °F 62% 30.12 in 10.0 mi East 9.2 mph - N/A   Scattered Clouds
1:53 PM 48.2 °F - 35.6 °F 62% 30.11 in 10.0 mi East 9.2 mph - N/A   Scattered Clouds
2:13 PM 48.2 °F - 35.6 °F 62% 30.11 in 7.0 mi East 8.1 mph - N/A   Mostly Cloudy
2:33 PM 48.2 °F - 35.6 °F 62% 30.10 in 10.0 mi East 9.2 mph - N/A   Mostly Cloudy
2:53 PM 48.2 °F - 35.6 °F 62% 30.10 in 7.0 mi East 8.1 mph - N/A   Scattered Clouds
3:13 PM 48.2 °F - 35.6 °F 62% 30.10 in 10.0 mi East 8.1 mph - N/A   Mostly Cloudy
3:33 PM 48.2 °F - 35.6 °F 62% 30.10 in 10.0 mi East 8.1 mph - N/A   Mostly Cloudy
3:53 PM 48.2 °F - 35.6 °F 62% 30.10 in 10.0 mi East 5.8 mph - N/A   Mostly Cloudy
4:13 PM 48.2 °F - 35.6 °F 62% 30.10 in 10.0 mi East 6.9 mph - N/A   Scattered Clouds
4:33 PM 48.2 °F - 35.6 °F 62% 30.10 in 10.0 mi East 6.9 mph - N/A   Mostly Cloudy
4:53 PM 48.2 °F - 35.6 °F 62% 30.10 in 10.0 mi East 6.9 mph - N/A   Mostly Cloudy
5:14 PM 46.4 °F 42.9 °F 35.6 °F 66% 30.10 in 10.0 mi East 6.9 mph - N/A   Mostly Cloudy
5:33 PM 46.4 °F 42.9 °F 35.6 °F 66% 30.11 in 10.0 mi East 6.9 mph - N/A   Mostly Cloudy
5:54 PM 46.4 °F 42.9 °F 35.6 °F 66% 30.11 in 10.0 mi East 6.9 mph - N/A   Scattered Clouds
6:14 PM 46.4 °F 42.4 °F 35.6 °F 66% 30.11 in 10.0 mi East 8.1 mph - N/A   Mostly Cloudy
6:33 PM 46.4 °F 42.9 °F 35.6 °F 66% 30.11 in 10.0 mi East 6.9 mph - N/A   Overcast
6:54 PM 46.4 °F 42.4 °F 35.6 °F 66% 30.12 in 10.0 mi ESE 8.1 mph - N/A   Mostly Cloudy
7:13 PM 46.4 °F 41.9 °F 35.6 °F 66% 30.12 in 10.0 mi ESE 9.2 mph - N/A   Mostly Cloudy
7:33 PM 46.4 °F 41.9 °F 35.6 °F 66% 30.12 in 10.0 mi ESE 9.2 mph - N/A   Mostly Cloudy
7:54 PM 46.4 °F 42.9 °F 35.6 °F 66% 30.12 in 10.0 mi ESE 6.9 mph - N/A   Overcast
8:13 PM 46.4 °F 41.9 °F 35.6 °F 66% 30.12 in 7.0 mi ESE 9.2 mph - N/A   Overcast
8:34 PM 46.4 °F 41.9 °F 35.6 °F 66% 30.12 in 7.0 mi ESE 9.2 mph - N/A   Overcast
8:53 PM 46.4 °F 42.4 °F 35.6 °F 66% 30.12 in 7.0 mi SE 8.1 mph - N/A   Overcast
9:13 PM 46.4 °F 42.9 °F 35.6 °F 66% 30.12 in 7.0 mi SE 6.9 mph - N/A   Overcast
9:33 PM 46.4 °F 43.5 °F 35.6 °F 66% 30.11 in 7.0 mi ESE 5.8 mph - N/A   Overcast
9:54 PM 46.4 °F 45.2 °F 35.6 °F 66% 30.11 in 7.0 mi SE 3.5 mph - N/A   Mostly Cloudy
10:13 PM 44.6 °F 43.1 °F 35.6 °F 71% 30.11 in 7.0 mi ESE 3.5 mph - N/A   Mostly Cloudy
10:33 PM 44.6 °F 42.2 °F 35.6 °F 71% 30.11 in 7.0 mi East 4.6 mph - N/A   Overcast
10:53 PM 44.6 °F 42.2 °F 35.6 °F 71% 30.11 in 7.0 mi East 4.6 mph - N/A   Mostly Cloudy